Observations for Trim Patrick St
| Time | AQI | Temp °C | Hum % | Pres Pa | CO μg/m³ | H₂S μg/m³ | NO μg/m³ | NO₂ μg/m³ | O₃ μg/m³ | SO₂ μg/m³ | PM1 μg/m³ | PM2.5 μg/m³ | PM10 μg/m³ |
|---|---|---|---|---|---|---|---|---|---|---|---|---|---|
| Saturday 8 August 2026 | |||||||||||||
| 05:30 | 1 | 14.7 | 75 | 38,460 | 0.23 | 0.26 | 2.97 | 13.51 | 20.74 | 0 | 2.86 | 7.7 | 8.47 |
| 05:29 | 1 | 14.7 | 75 | 38,460 | 0.23 | 2.7 | 2.98 | 24.34 | 18.54 | 0 | 3.71 | 7.7 | 8.47 |
| 05:28 | 1 | 14.7 | 75 | 38,460 | 0.23 | 0 | 3.08 | 14.79 | 20.83 | 0 | 3.71 | 9.12 | 10.03 |
| 05:27 | 1 | 14.7 | 75 | 38,460 | 0.25 | 0 | 3.13 | 13.66 | 20.86 | 0 | 3.71 | 8.42 | 9.26 |
| 05:26 | 1 | 14.7 | 75 | 38,460 | 0.23 | 0 | 3.09 | 12.16 | 22.85 | 0 | 3.71 | 6.99 | 7.69 |
| 05:25 | 1 | 14.7 | 75 | 38,460 | 0.24 | 1.4 | 3.16 | 21.64 | 18.33 | 0 | 4.57 | 8.42 | 9.26 |
| 05:24 | 1 | 14.7 | 75 | 38,460 | 0.24 | 0 | 3.14 | 13.13 | 22.49 | 0 | 5.43 | 9.84 | 10.83 |
| 05:23 | 1 | 14.7 | 75 | 38,460 | 0.24 | 0 | 3.13 | 13.48 | 22.25 | 0 | 4.57 | 9.13 | 10.04 |
| 05:22 | 1 | 14.7 | 74 | 38,460 | 0.24 | 0 | 3.08 | 13.8 | 22.02 | 0 | 4.57 | 7.72 | 8.49 |
| 05:21 | 1 | 14.7 | 75 | 38,460 | 0.24 | 0 | 3.16 | 14.49 | 21.3 | 0 | 4.57 | 8.42 | 9.26 |
| 05:20 | 1 | 14.7 | 74 | 38,460 | 0.24 | 0 | 3.17 | 11.72 | 24.05 | 0 | 4.57 | 7.71 | 8.49 |
| 05:18 | 1 | 14.7 | 74 | 38,460 | 0.23 | 0.52 | 3.19 | 15.54 | 21.38 | 0 | 4.57 | 9.88 | 10.87 |
| 05:15 | 1 | 14.7 | 75 | 38,460 | 0.23 | 0 | 3.12 | 12.76 | 22.6 | 0 | 6.29 | 9.13 | 10.04 |
| 05:14 | 1 | 14.7 | 75 | 38,460 | 0.24 | 0.67 | 3.13 | 14.74 | 20.83 | 0 | 3.71 | 7 | 7.7 |
| 05:13 | 1 | 14.7 | 74 | 38,460 | 0.24 | 0.08 | 3.18 | 18 | 18.89 | 0 | 3.71 | 6.3 | 6.93 |
| 05:12 | 1 | 14.7 | 75 | 38,460 | 0.24 | 0 | 3.13 | 15.03 | 20.06 | 0 | 3.71 | 7 | 7.7 |
| 05:11 | 1 | 14.7 | 74 | 38,460 | 0.23 | 0 | 3.15 | 13.27 | 20.66 | 0 | 3.71 | 7.71 | 8.49 |
| 05:10 | 1 | 14.7 | 74 | 38,460 | 0.23 | 0 | 3.15 | 13.63 | 20.13 | 0 | 4.57 | 8.43 | 9.27 |
| 05:09 | 1 | 14.7 | 75 | 38,460 | 0.23 | 1.22 | 3.06 | 15.3 | 22.59 | 0 | 5.43 | 9.84 | 10.83 |
| 05:06 | 1 | 14.7 | 75 | 38,460 | 0.23 | 0 | 3.06 | 12.6 | 19.72 | 0 | 3.71 | 8.4 | 9.24 |